WZZ1013 LBSF-LIRN

Flight info

Callsign WZZ1013
Flight time 1h 22m
Altitude 38000
Route NAPET T214 SIN DCT DOBAR/N0414F280 DCT PAPIZ/N0452F390 DCT OKIMO DCT DOGUS/N0453F380 DCT EKTOL
Aircraft A20N/M-SDE1E2E3FGIJ1J4RWXY/LB1

Departure

Time 2026-05-07 17:32
Airport Sofia Airport (LBSF)

Arrival

Time 2026-05-07 18:55
Airport Naples International Airport (LIRN)
Time Latitude Longitude Altitude Speed Heading
2026-05-07 17:13 42.69064 23.40375 1742 ft 0 kts 195°
2026-05-07 17:27 42.69063 23.40375 1746 ft 1 kts 195°
2026-05-07 17:28 42.69045 23.40367 1746 ft 4 kts 197°
2026-05-07 17:28 42.69023 23.40332 1741 ft 6 kts 264°
2026-05-07 17:28 42.69036 23.40262 1743 ft 9 kts 285°
2026-05-07 17:28 42.69057 23.40164 1743 ft 12 kts 287°
2026-05-07 17:29 42.69085 23.40043 1745 ft 15 kts 288°
2026-05-07 17:29 42.69104 23.39894 1743 ft 17 kts 285°
2026-05-07 17:29 42.69139 23.39736 1743 ft 15 kts 277°
2026-05-07 17:29 42.69163 23.39586 1738 ft 17 kts 288°
2026-05-07 17:30 42.69251 23.39543 1743 ft 15 kts
2026-05-07 17:30 42.69348 23.39555 1737 ft 11 kts
2026-05-07 17:30 42.69408 23.39561 1736 ft 8 kts
2026-05-07 17:30 42.69472 23.39568 1742 ft 10 kts
2026-05-07 17:31 42.69551 23.39578 1745 ft 13 kts
2026-05-07 17:31 42.69644 23.39585 1740 ft 14 kts
2026-05-07 17:31 42.69745 23.39604 1746 ft 14 kts 21°
2026-05-07 17:31 42.69764 23.39707 1746 ft 14 kts 94°
2026-05-07 17:32 42.69745 23.40042 1747 ft 69 kts 94°
2026-05-07 17:32 42.69690 23.40983 1747 ft 128 kts 94°
2026-05-07 17:32 42.69607 23.42388 1799 ft 167 kts 94°
2026-05-07 17:32 42.69503 23.43896 2432 ft 165 kts 96°
2026-05-07 17:33 42.69388 23.45466 3009 ft 168 kts 96°
2026-05-07 17:33 42.69266 23.47052 3616 ft 171 kts 96°
2026-05-07 17:33 42.69163 23.48759 3955 ft 192 kts 96°
2026-05-07 17:33 42.69063 23.50675 4271 ft 217 kts 97°
2026-05-07 17:34 42.68943 23.52844 4746 ft 241 kts 97°
2026-05-07 17:34 42.68807 23.55195 5429 ft 254 kts 99°
2026-05-07 17:34 42.68245 23.57436 6377 ft 253 kts 126°
2026-05-07 17:34 42.66970 23.59066 7223 ft 255 kts 155°
2026-05-07 17:35 42.65274 23.59661 8119 ft 253 kts 183°
2026-05-07 17:35 42.63528 23.59116 8694 ft 268 kts 210°
2026-05-07 17:35 42.62041 23.57557 9493 ft 272 kts 227°
2026-05-07 17:35 42.60798 23.55610 10416 ft 277 kts 233°
2026-05-07 17:36 42.59598 23.53480 10782 ft 300 kts 234°
2026-05-07 17:36 42.58305 23.51130 11127 ft 321 kts 234°
2026-05-07 17:36 42.56934 23.48680 11829 ft 328 kts 233°
2026-05-07 17:36 42.55529 23.46218 12675 ft 333 kts 233°
2026-05-07 17:37 42.54089 23.43727 13479 ft 337 kts 233°
2026-05-07 17:37 42.52629 23.41220 14328 ft 338 kts 234°
2026-05-07 17:37 42.51160 23.38700 15049 ft 344 kts 234°
2026-05-07 17:37 42.49670 23.36140 15756 ft 348 kts 234°
2026-05-07 17:38 42.48162 23.33548 16465 ft 352 kts 234°
2026-05-07 17:38 42.46633 23.30926 17148 ft 357 kts 234°
2026-05-07 17:38 42.45084 23.28269 17844 ft 361 kts 233°
2026-05-07 17:38 42.43514 23.25581 18504 ft 366 kts 233°
2026-05-07 17:39 42.41927 23.22866 19118 ft 370 kts 233°
2026-05-07 17:39 42.40325 23.20128 19747 ft 373 kts 234°
2026-05-07 17:39 42.38707 23.17366 20357 ft 377 kts 234°
2026-05-07 17:39 42.37072 23.14574 20971 ft 380 kts 234°
2026-05-07 17:40 42.35422 23.11762 21564 ft 384 kts 234°
2026-05-07 17:40 42.33759 23.08928 22212 ft 386 kts 233°
2026-05-07 17:40 42.32084 23.06076 22810 ft 389 kts 233°
2026-05-07 17:40 42.30388 23.03194 23381 ft 393 kts 233°
2026-05-07 17:41 42.28704 23.00263 23898 ft 396 kts 237°
2026-05-07 17:41 42.27198 22.97146 24406 ft 397 kts 239°
2026-05-07 17:41 42.25705 22.93994 24904 ft 400 kts 239°
2026-05-07 17:41 42.24198 22.90826 25386 ft 402 kts 239°
2026-05-07 17:42 42.22679 22.87639 25866 ft 405 kts 239°
2026-05-07 17:42 42.21169 22.84479 26318 ft 407 kts 239°
2026-05-07 17:42 42.19627 22.81258 26772 ft 410 kts 239°
2026-05-07 17:42 42.18075 22.78018 27213 ft 412 kts 239°
2026-05-07 17:43 42.16516 22.74769 27700 ft 413 kts 239°
2026-05-07 17:43 42.14947 22.71504 28095 ft 416 kts 239°
2026-05-07 17:43 42.13370 22.68223 28532 ft 418 kts 239°
2026-05-07 17:43 42.11784 22.64929 28932 ft 420 kts 239°
2026-05-07 17:44 42.10189 22.61619 29290 ft 423 kts 239°
2026-05-07 17:44 42.08583 22.58289 29660 ft 425 kts 239°
2026-05-07 17:44 42.06970 22.54943 30039 ft 427 kts 240°
2026-05-07 17:44 42.05350 22.51583 30388 ft 429 kts 240°
2026-05-07 17:45 42.03723 22.48213 30735 ft 430 kts 240°
2026-05-07 17:45 42.02087 22.44831 31053 ft 432 kts 240°
2026-05-07 17:45 42.00440 22.41431 31363 ft 435 kts 240°
2026-05-07 17:45 41.98803 22.38028 31813 ft 432 kts 242°
2026-05-07 17:46 41.97377 22.34512 32321 ft 426 kts 248°
2026-05-07 17:46 41.96165 22.30900 32779 ft 423 kts 249°
2026-05-07 17:46 41.94965 22.27304 33235 ft 421 kts 249°
2026-05-07 17:46 41.93767 22.23730 33673 ft 419 kts 249°
2026-05-07 17:47 41.92573 22.20176 34121 ft 417 kts 249°
2026-05-07 17:47 41.91382 22.16641 34501 ft 414 kts 249°
2026-05-07 17:47 41.90197 22.13132 34874 ft 411 kts 249°
2026-05-07 17:47 41.89024 22.09665 35337 ft 406 kts 249°
2026-05-07 17:48 41.87862 22.06231 35724 ft 402 kts 250°
2026-05-07 17:48 41.86707 22.02823 36095 ft 400 kts 250°
2026-05-07 17:48 41.85563 21.99458 36599 ft 391 kts 251°
2026-05-07 17:48 41.84449 21.96196 37264 ft 381 kts 251°
2026-05-07 17:49 41.83354 21.92987 37650 ft 377 kts 252°
2026-05-07 17:49 41.82270 21.89800 37941 ft 374 kts 252°
2026-05-07 17:49 41.81190 21.86628 38080 ft 373 kts 252°
2026-05-07 17:49 41.80116 21.83474 38076 ft 371 kts 252°
2026-05-07 17:50 41.77969 21.77182 38079 ft 370 kts 252°
2026-05-07 17:50 41.75827 21.70926 38106 ft 370 kts 252°
2026-05-07 17:51 41.73676 21.64662 38087 ft 368 kts 253°
2026-05-07 17:51 41.71588 21.58619 38097 ft 357 kts 253°
2026-05-07 17:52 41.69498 21.52525 38108 ft 362 kts 253°
2026-05-07 17:52 41.67383 21.46392 38104 ft 362 kts 253°
2026-05-07 17:53 41.65261 21.40262 38106 ft 364 kts 253°
2026-05-07 17:53 41.63142 21.34168 38102 ft 359 kts 253°
2026-05-07 17:54 41.61031 21.28101 38094 ft 359 kts 253°
2026-05-07 17:54 41.58927 21.22077 38109 ft 359 kts 253°
2026-05-07 17:55 41.56826 21.16058 38108 ft 357 kts 253°
2026-05-07 17:55 41.54730 21.10068 38106 ft 353 kts 253°
2026-05-07 17:56 41.52652 21.04136 38116 ft 351 kts 253°
2026-05-07 17:56 41.50567 20.98201 38115 ft 354 kts 253°
2026-05-07 17:57 41.48828 20.93260 38111 ft 354 kts 253°
2026-05-07 17:57 41.46378 20.86310 38118 ft 355 kts 253°
2026-05-07 17:58 41.44269 20.80351 38112 ft 354 kts 253°
2026-05-07 17:58 41.42170 20.74433 38120 ft 353 kts 253°
2026-05-07 17:59 41.40066 20.68505 38126 ft 354 kts 253°
2026-05-07 17:59 41.37972 20.62625 38110 ft 353 kts 253°
2026-05-07 18:00 41.35863 20.56711 38114 ft 354 kts 253°
2026-05-07 18:00 41.33740 20.50776 38109 ft 352 kts 253°
2026-05-07 18:01 41.31944 20.44738 38095 ft 350 kts 257°
2026-05-07 18:01 41.30282 20.38723 38102 ft 349 kts 257°
2026-05-07 18:02 41.27752 20.29624 38090 ft 350 kts 257°
2026-05-07 18:03 41.26058 20.23574 38084 ft 349 kts 257°
2026-05-07 18:03 41.24364 20.17535 38080 ft 349 kts 257°
2026-05-07 18:04 41.22666 20.11504 38064 ft 348 kts 256°
2026-05-07 18:04 41.20983 20.05516 38089 ft 346 kts 257°
2026-05-07 18:05 41.19288 19.99511 38066 ft 348 kts 256°
2026-05-07 18:05 41.17596 19.93557 38083 ft 345 kts 256°
2026-05-07 18:06 41.15892 19.87544 38070 ft 349 kts 256°
2026-05-07 18:06 41.14183 19.81542 38061 ft 347 kts 257°
2026-05-07 18:07 41.12471 19.75537 38065 ft 348 kts 256°
2026-05-07 18:07 41.10757 19.69537 38064 ft 348 kts 256°
2026-05-07 18:08 41.09046 19.63570 38062 ft 347 kts 256°
2026-05-07 18:08 41.07329 19.57581 38061 ft 348 kts 256°
2026-05-07 18:09 41.05607 19.51601 38062 ft 347 kts 256°
2026-05-07 18:09 41.03882 19.45622 38070 ft 348 kts 255°
2026-05-07 18:10 41.02162 19.39671 38053 ft 345 kts 255°
2026-05-07 18:10 41.00450 19.33764 38047 ft 343 kts 255°
2026-05-07 18:11 40.98739 19.27864 38062 ft 347 kts 255°
2026-05-07 18:11 40.97005 19.21913 38063 ft 346 kts 255°
2026-05-07 18:12 40.95272 19.15977 38058 ft 346 kts 255°
2026-05-07 18:12 40.93539 19.10050 38058 ft 344 kts 255°
2026-05-07 18:13 40.92097 19.05133 38056 ft 342 kts 255°
2026-05-07 18:13 40.90514 18.99212 38059 ft 340 kts 259°
2026-05-07 18:14 40.89662 18.93158 38056 ft 336 kts 267°
2026-05-07 18:14 40.89563 18.87003 38053 ft 335 kts 274°
2026-05-07 18:15 40.89886 18.80862 38051 ft 335 kts 274°
2026-05-07 18:15 40.90192 18.74716 38066 ft 335 kts 273°
2026-05-07 18:16 40.90491 18.68564 38060 ft 335 kts 273°
2026-05-07 18:16 40.90786 18.62418 38059 ft 335 kts 273°
2026-05-07 18:17 40.91077 18.56276 38051 ft 335 kts 273°
2026-05-07 18:17 40.91366 18.50141 38051 ft 334 kts 273°
2026-05-07 18:18 40.91650 18.44014 38051 ft 334 kts 273°
2026-05-07 18:18 40.91933 18.37888 38047 ft 334 kts 272°
2026-05-07 18:19 40.92210 18.31771 38038 ft 333 kts 272°
2026-05-07 18:19 40.92483 18.25664 38036 ft 333 kts 272°
2026-05-07 18:20 40.92754 18.19563 38031 ft 332 kts 272°
2026-05-07 18:20 40.93020 18.13464 38030 ft 332 kts 272°
2026-05-07 18:21 40.93284 18.07369 38026 ft 332 kts 272°
2026-05-07 18:21 40.93550 18.01273 38022 ft 332 kts 272°
2026-05-07 18:22 40.93832 17.95209 38023 ft 332 kts 272°
2026-05-07 18:22 40.94114 17.89107 38023 ft 332 kts 272°
2026-05-07 18:23 40.94390 17.82998 38022 ft 333 kts 272°
2026-05-07 18:23 40.94663 17.76887 38024 ft 333 kts 272°
2026-05-07 18:24 40.94935 17.70770 38031 ft 333 kts 272°
2026-05-07 18:24 40.95204 17.64646 38029 ft 334 kts 271°
2026-05-07 18:25 40.95469 17.58524 38027 ft 334 kts 271°
2026-05-07 18:25 40.95730 17.52395 38030 ft 333 kts 271°
2026-05-07 18:26 40.95988 17.46270 38024 ft 333 kts 271°
2026-05-07 18:26 40.96242 17.40146 38023 ft 333 kts 271°
2026-05-07 18:27 40.96495 17.34042 38016 ft 331 kts 271°
2026-05-07 18:27 40.96741 17.27952 38018 ft 332 kts 271°
2026-05-07 18:28 40.96984 17.21857 38018 ft 332 kts 271°
2026-05-07 18:28 40.97223 17.15803 38015 ft 332 kts 271°
2026-05-07 18:29 40.97460 17.09706 38016 ft 332 kts 271°
2026-05-07 18:29 40.97695 17.03604 38030 ft 332 kts 270°
2026-05-07 18:30 40.97928 16.97493 38018 ft 332 kts 270°
2026-05-07 18:30 40.98155 16.91385 38020 ft 332 kts 270°
2026-05-07 18:31 40.98379 16.85279 38025 ft 332 kts 270°
2026-05-07 18:31 40.98601 16.79170 38022 ft 332 kts 270°
2026-05-07 18:32 40.98819 16.73069 38019 ft 332 kts 270°
2026-05-07 18:32 40.99036 16.66967 37999 ft 332 kts 269°
2026-05-07 18:33 40.99247 16.60872 37998 ft 331 kts 269°
2026-05-07 18:33 40.99455 16.54779 37979 ft 331 kts 269°
2026-05-07 18:34 40.99658 16.48730 37972 ft 331 kts 269°
2026-05-07 18:34 40.99860 16.42641 37975 ft 331 kts 269°
2026-05-07 18:35 41.00059 16.36546 37975 ft 331 kts 269°
2026-05-07 18:35 41.00157 16.33512 37768 ft 330 kts 269°
2026-05-07 18:35 41.00255 16.30459 36866 ft 337 kts 269°
2026-05-07 18:35 41.00351 16.27272 35335 ft 358 kts 269°
2026-05-07 18:36 41.00452 16.23891 34084 ft 374 kts 269°
2026-05-07 18:36 41.00560 16.20419 33042 ft 380 kts 269°
2026-05-07 18:36 41.00670 16.16908 32158 ft 383 kts 270°
2026-05-07 18:36 41.00780 16.13352 31370 ft 391 kts 270°
2026-05-07 18:37 41.00890 16.09692 30885 ft 404 kts 270°
2026-05-07 18:37 41.01001 16.05946 30617 ft 410 kts 270°
2026-05-07 18:37 41.01114 16.02164 30219 ft 413 kts 270°
2026-05-07 18:37 41.01225 15.98334 29152 ft 421 kts 270°
2026-05-07 18:38 41.01336 15.94447 28344 ft 421 kts 270°
2026-05-07 18:38 41.01445 15.90618 27815 ft 413 kts 270°
2026-05-07 18:38 41.01552 15.86839 27158 ft 408 kts 270°
2026-05-07 18:38 41.01656 15.83100 26494 ft 405 kts 270°
2026-05-07 18:39 41.01758 15.79391 25787 ft 402 kts 270°
2026-05-07 18:39 41.01858 15.75656 24647 ft 411 kts 271°
2026-05-07 18:39 41.01960 15.71848 23785 ft 414 kts 271°
2026-05-07 18:39 41.02267 15.68063 23015 ft 413 kts 278°
2026-05-07 18:40 41.02752 15.64343 22284 ft 406 kts 278°
2026-05-07 18:40 41.03229 15.60679 21162 ft 404 kts 278°
2026-05-07 18:40 41.03700 15.57040 20147 ft 400 kts 278°
2026-05-07 18:40 41.04161 15.53448 19531 ft 387 kts 278°
2026-05-07 18:41 41.04602 15.50004 18984 ft 373 kts 277°
2026-05-07 18:41 41.05026 15.46663 18422 ft 362 kts 277°
2026-05-07 18:41 41.05439 15.43397 17834 ft 358 kts 277°
2026-05-07 18:41 41.05845 15.40163 17308 ft 354 kts 277°
2026-05-07 18:42 41.06242 15.36999 16780 ft 351 kts 277°
2026-05-07 18:42 41.06642 15.33815 16248 ft 348 kts 277°
2026-05-07 18:42 41.07037 15.30659 15717 ft 346 kts 277°
2026-05-07 18:42 41.07429 15.27520 15199 ft 345 kts 277°
2026-05-07 18:43 41.07820 15.24388 14670 ft 344 kts 277°
2026-05-07 18:43 41.08208 15.21269 14150 ft 342 kts 277°
2026-05-07 18:43 41.08594 15.18160 13603 ft 341 kts 277°
2026-05-07 18:43 41.08978 15.15062 13076 ft 339 kts 277°
2026-05-07 18:44 41.09358 15.11985 12553 ft 337 kts 277°
2026-05-07 18:44 41.09735 15.08923 12048 ft 336 kts 277°
2026-05-07 18:44 41.10110 15.05872 11533 ft 335 kts 277°
2026-05-07 18:44 41.10484 15.02826 11017 ft 334 kts 277°
2026-05-07 18:45 41.10856 14.99784 10502 ft 334 kts 277°
2026-05-07 18:45 41.11225 14.96766 10194 ft 327 kts 277°
2026-05-07 18:45 41.11581 14.93852 10069 ft 314 kts 277°
2026-05-07 18:45 41.11924 14.91042 9855 ft 305 kts 278°
2026-05-07 18:46 41.12258 14.88310 9675 ft 295 kts 277°
2026-05-07 18:46 41.12584 14.85626 9299 ft 297 kts 278°
2026-05-07 18:46 41.12849 14.82920 8894 ft 295 kts 269°
2026-05-07 18:46 41.12497 14.80274 8475 ft 290 kts 246°
2026-05-07 18:47 41.11526 14.77962 8056 ft 286 kts 236°
2026-05-07 18:47 41.10469 14.75729 7648 ft 285 kts 235°
2026-05-07 18:47 41.09419 14.73500 7240 ft 285 kts 236°
2026-05-07 18:47 41.08382 14.71289 7022 ft 279 kts 236°
2026-05-07 18:48 41.07381 14.69154 6942 ft 266 kts 236°
2026-05-07 18:48 41.06442 14.67142 6932 ft 246 kts 236°
2026-05-07 18:48 41.05568 14.65267 6968 ft 239 kts 236°
2026-05-07 18:48 41.04682 14.63373 6904 ft 244 kts 235°
2026-05-07 18:49 41.03794 14.61470 6757 ft 241 kts 236°
2026-05-07 18:49 41.02928 14.59617 6484 ft 238 kts 236°
2026-05-07 18:49 41.02068 14.57777 6213 ft 229 kts 236°
2026-05-07 18:49 41.01245 14.56018 6019 ft 216 kts 236°
2026-05-07 18:50 41.00472 14.54369 5615 ft 215 kts 237°
2026-05-07 18:50 40.99699 14.52716 5430 ft 203 kts 236°
2026-05-07 18:50 40.98985 14.51179 5303 ft 189 kts 237°
2026-05-07 18:50 40.98324 14.49759 5174 ft 174 kts 237°
2026-05-07 18:51 40.97692 14.48407 4898 ft 174 kts 236°
2026-05-07 18:51 40.97038 14.47007 4462 ft 182 kts 237°
2026-05-07 18:51 40.96369 14.45579 4048 ft 182 kts 238°
2026-05-07 18:51 40.95706 14.44169 3652 ft 179 kts 237°
2026-05-07 18:52 40.95044 14.42761 3091 ft 182 kts 237°
2026-05-07 18:52 40.94366 14.41330 2524 ft 184 kts 238°
2026-05-07 18:52 40.93688 14.39901 2023 ft 181 kts 239°
2026-05-07 18:52 40.93075 14.38586 1846 ft 158 kts 238°
2026-05-07 18:53 40.92516 14.37395 1624 ft 148 kts 239°
2026-05-07 18:53 40.91980 14.36256 1421 ft 143 kts 238°
2026-05-07 18:53 40.91470 14.35170 1221 ft 135 kts 238°
2026-05-07 18:53 40.90974 14.34114 1025 ft 134 kts 239°
2026-05-07 18:54 40.90488 14.33079 829 ft 132 kts 240°
2026-05-07 18:54 40.90002 14.32047 652 ft 132 kts 240°
2026-05-07 18:54 40.89517 14.31014 412 ft 133 kts 241°
2026-05-07 18:54 40.89035 14.29987 239 ft 128 kts 240°
2026-05-07 18:55 40.88701 14.29281 258 ft 50 kts 238°
2026-05-07 18:55 40.88594 14.29057 268 ft 23 kts 236°
2026-05-07 18:55 40.88513 14.28886 277 ft 20 kts 238°
2026-05-07 18:55 40.88430 14.28762 281 ft 16 kts 176°
2026-05-07 18:56 40.88329 14.28835 279 ft 19 kts 147°
2026-05-07 18:56 40.88237 14.28905 279 ft 9 kts 169°
2026-05-07 18:56 40.88187 14.28858 282 ft 9 kts 225°
2026-05-07 18:56 40.88145 14.28791 284 ft 9 kts 232°
2026-05-07 18:57 40.88104 14.28720 287 ft 10 kts 233°
2026-05-07 18:57 40.88066 14.28644 293 ft 12 kts 238°
2026-05-07 18:57 40.88008 14.28540 297 ft 17 kts 231°
2026-05-07 18:57 40.87936 14.28431 302 ft 14 kts 261°
2026-05-07 18:58 40.87949 14.28299 302 ft 15 kts 277°
2026-05-07 18:58 40.87961 14.28178 305 ft 12 kts 277°
2026-05-07 18:58 40.87934 14.28081 309 ft 11 kts 228°
2026-05-07 18:58 40.87873 14.28049 310 ft 10 kts 140°
2026-05-07 18:59 40.87831 14.28096 310 ft 0 kts 141°